GFSMA_prec_pwat_186.txt.gz
Precipitable_Water
1.41 1.49 1.47 1.46 1.41 1.41 1.41 1.28 1.19 1.10 1.02 0.95 0.85 0.82 0.80 1.02 1.02 1.03 0.98 1.05 1.15 1.20 1.20 1.15 1.10 1.10 1.12 1.11 1.11 1.12 1.13 1.13 1.13 1.13 1.14 1.15 1.18 1.21 1.27 1.30 1.33 1.34 1.34
1.45 1.36 1.52 1.45 1.47 1.49 1.48 1.34 1.22 1.08 0.98 0.83 0.72 0.76 0.78 0.93 1.01 1.01 1.00 1.05 1.09 1.09 1.05 1.04 1.00 0.98 0.96 0.93 0.94 0.93 0.91 0.91 0.94 0.97 0.97 0.96 0.96 0.98 1.02 1.13 1.19 1.20 1.21
1.48 1.42 1.44 1.50 1.52 1.52 1.49 1.40 1.20 1.05 0.91 0.80 0.71 0.73 0.74 0.86 0.95 0.94 0.95 0.98 1.01 1.01 1.02 1.00 0.92 0.86 0.83 0.83 0.83 0.82 0.81 0.82 0.82 0.81 0.80 0.81 0.82 0.84 0.87 0.91 0.98 1.04 1.07
1.49 1.42 1.46 1.48 1.55 1.51 1.46 1.36 1.13 0.93 0.81 0.76 0.72 0.73 0.75 0.86 0.96 0.95 0.95 0.97 1.00 0.99 0.98 0.94 0.92 0.86 0.84 0.83 0.83 0.81 0.80 0.78 0.77 0.76 0.74 0.71 0.71 0.71 0.73 0.74 0.77 0.85 0.93
1.53 1.48 1.50 1.50 1.50 1.44 1.42 1.36 1.15 0.89 0.78 0.73 0.73 0.80 0.83 0.83 0.95 0.96 0.94 0.95 0.97 0.95 0.92 0.89 0.88 0.83 0.81 0.82 0.82 0.82 0.80 0.78 0.75 0.72 0.69 0.67 0.64 0.63 0.61 0.61 0.61 0.62 0.63
1.63 1.59 1.56 1.54 1.45 1.41 1.40 1.33 1.18 0.97 0.81 0.77 0.74 0.82 0.85 0.87 0.90 0.90 0.91 0.93 0.90 0.86 0.85 0.78 0.77 0.78 0.80 0.82 0.84 0.85 0.82 0.77 0.73 0.70 0.67 0.65 0.63 0.60 0.59 0.58 0.56 0.56 0.56
1.68 1.61 1.57 1.50 1.46 1.41 1.36 1.33 1.21 1.06 0.89 0.84 0.84 0.86 0.90 0.97 0.96 0.97 0.98 0.94 0.87 0.85 0.82 0.80 0.76 0.73 0.76 0.80 0.81 0.80 0.78 0.76 0.71 0.68 0.66 0.64 0.62 0.59 0.58 0.57 0.56 0.54 0.54
1.65 1.60 1.57 1.52 1.48 1.43 1.38 1.32 1.21 1.07 1.01 0.97 0.84 0.84 0.78 0.86 0.94 1.02 1.00 0.95 0.91 0.90 0.87 0.83 0.80 0.78 0.77 0.74 0.74 0.75 0.75 0.73 0.71 0.68 0.66 0.64 0.63 0.61 0.60 0.59 0.58 0.58 0.57
1.56 1.55 1.57 1.54 1.52 1.48 1.38 1.33 1.26 1.24 1.12 1.09 1.05 0.88 0.74 0.71 0.84 0.96 0.97 0.96 0.94 0.90 0.87 0.88 0.87 0.84 0.82 0.79 0.75 0.72 0.70 0.70 0.70 0.70 0.68 0.67 0.66 0.64 0.63 0.61 0.59 0.57 0.56
1.44 1.45 1.47 1.47 1.47 1.45 1.40 1.38 1.33 1.27 1.25 1.09 1.14 1.06 0.99 0.94 0.79 0.75 0.91 0.94 0.95 0.90 0.88 0.88 0.89 0.89 0.88 0.86 0.82 0.75 0.71 0.70 0.69 0.68 0.66 0.65 0.65 0.64 0.64 0.63 0.62 0.60 0.57
1.37 1.39 1.39 1.40 1.41 1.37 1.34 1.29 1.27 1.22 1.21 1.15 1.10 1.10 1.04 0.99 0.94 0.85 0.79 0.88 0.95 0.94 0.94 0.91 0.91 0.92 0.93 0.92 0.85 0.78 0.70 0.66 0.63 0.64 0.64 0.63 0.64 0.65 0.63 0.62 0.58 0.56 0.55
1.28 1.31 1.34 1.34 1.33 1.30 1.25 1.21 1.18 1.15 1.15 1.13 1.09 1.06 1.01 0.94 0.90 0.87 0.82 0.83 0.80 0.85 0.89 0.91 0.94 0.94 0.94 0.91 0.90 0.80 0.69 0.63 0.63 0.61 0.59 0.59 0.59 0.59 0.58 0.57 0.54 0.52 0.50
1.22 1.26 1.27 1.25 1.22 1.19 1.16 1.14 1.10 1.07 1.07 1.01 0.97 0.94 0.95 0.93 0.94 0.90 0.84 0.81 0.78 0.84 0.87 0.93 0.94 0.94 0.89 0.86 0.86 0.80 0.71 0.61 0.59 0.56 0.54 0.52 0.51 0.51 0.53 0.52 0.49 0.48 0.47
1.21 1.22 1.21 1.17 1.19 1.15 1.09 1.05 0.99 0.96 0.94 0.91 0.86 0.85 0.84 0.84 0.83 0.84 0.80 0.76 0.70 0.74 0.79 0.76 0.87 0.89 0.87 0.84 0.82 0.78 0.68 0.60 0.55 0.52 0.50 0.49 0.49 0.49 0.50 0.47 0.46 0.46 0.45
1.18 1.18 1.18 1.07 0.92 0.93 0.94 0.90 0.87 0.84 0.84 0.81 0.79 0.78 0.78 0.79 0.82 0.83 0.83 0.81 0.72 0.63 0.66 0.71 0.72 0.81 0.80 0.79 0.77 0.72 0.66 0.62 0.54 0.49 0.47 0.46 0.48 0.48 0.48 0.45 0.43 0.42 0.42
1.09 1.09 1.05 0.87 0.83 0.82 0.80 0.77 0.75 0.76 0.74 0.74 0.74 0.75 0.77 0.78 0.78 0.79 0.77 0.77 0.76 0.71 0.63 0.73 0.70 0.73 0.74 0.73 0.74 0.71 0.69 0.62 0.55 0.49 0.45 0.44 0.45 0.44 0.45 0.42 0.41 0.40 0.40
0.98 0.90 0.81 0.77 0.73 0.70 0.71 0.69 0.68 0.68 0.65 0.65 0.66 0.65 0.65 0.65 0.63 0.62 0.62 0.63 0.67 0.70 0.62 0.66 0.69 0.70 0.69 0.68 0.70 0.69 0.65 0.58 0.53 0.51 0.47 0.44 0.42 0.42 0.43 0.39 0.38 0.37 0.36
0.80 0.76 0.75 0.70 0.66 0.65 0.63 0.59 0.57 0.56 0.53 0.50 0.48 0.46 0.44 0.43 0.41 0.42 0.45 0.49 0.53 0.58 0.61 0.58 0.61 0.62 0.64 0.66 0.64 0.62 0.62 0.62 0.55 0.53 0.51 0.45 0.42 0.44 0.41 0.38 0.36 0.33 0.33
0.75 0.74 0.69 0.63 0.60 0.57 0.55 0.52 0.50 0.49 0.45 0.42 0.39 0.36 0.34 0.35 0.35 0.38 0.40 0.40 0.43 0.46 0.50 0.54 0.51 0.56 0.60 0.61 0.58 0.60 0.60 0.57 0.54 0.51 0.48 0.43 0.42 0.41 0.38 0.35 0.33 0.32 0.30
0.71 0.67 0.63 0.58 0.57 0.54 0.48 0.46 0.47 0.43 0.42 0.42 0.41 0.41 0.41 0.39 0.39 0.39 0.39 0.40 0.42 0.42 0.42 0.41 0.46 0.45 0.47 0.53 0.55 0.52 0.49 0.52 0.49 0.52 0.46 0.42 0.41 0.40 0.37 0.34 0.31 0.28 0.26
0.65 0.63 0.61 0.56 0.52 0.48 0.48 0.47 0.44 0.41 0.37 0.37 0.37 0.37 0.37 0.37 0.39 0.38 0.35 0.33 0.33 0.34 0.36 0.40 0.43 0.41 0.39 0.41 0.42 0.45 0.47 0.48 0.49 0.46 0.40 0.36 0.38 0.39 0.35 0.33 0.29 0.26 0.24
0.66 0.62 0.55 0.52 0.49 0.49 0.48 0.44 0.40 0.38 0.38 0.36 0.34 0.35 0.36 0.35 0.34 0.34 0.33 0.34 0.33 0.32 0.30 0.31 0.36 0.34 0.36 0.37 0.42 0.39 0.42 0.43 0.38 0.45 0.37 0.34 0.39 0.34 0.32 0.30 0.28 0.26 0.25
0.63 0.56 0.52 0.50 0.47 0.47 0.44 0.42 0.41 0.39 0.38 0.37 0.34 0.33 0.33 0.33 0.31 0.29 0.30 0.31 0.30 0.32 0.34 0.33 0.32 0.36 0.37 0.39 0.40 0.41 0.36 0.41 0.40 0.39 0.36 0.33 0.35 0.30 0.30 0.29 0.28 0.26 0.25
0.55 0.52 0.51 0.49 0.48 0.47 0.45 0.43 0.40 0.40 0.38 0.37 0.34 0.33 0.32 0.31 0.30 0.28 0.28 0.27 0.28 0.30 0.33 0.35 0.37 0.39 0.41 0.43 0.40 0.38 0.39 0.38 0.37 0.37 0.37 0.28 0.32 0.28 0.28 0.27 0.26 0.25 0.24
0.53 0.51 0.49 0.49 0.47 0.45 0.42 0.41 0.38 0.38 0.37 0.36 0.36 0.35 0.33 0.30 0.28 0.28 0.29 0.28 0.28 0.29 0.33 0.34 0.39 0.44 0.44 0.42 0.41 0.39 0.32 0.29 0.28 0.30 0.35 0.30 0.27 0.25 0.27 0.25 0.24 0.23 0.21
0.49 0.47 0.47 0.49 0.48 0.44 0.40 0.38 0.38 0.38 0.34 0.33 0.34 0.35 0.34 0.33 0.32 0.33 0.34 0.33 0.30 0.31 0.32 0.33 0.35 0.38 0.40 0.38 0.34 0.33 0.33 0.27 0.26 0.25 0.28 0.27 0.25 0.23 0.20 0.24 0.24 0.23 0.22

GFSMA_prec_pwat_192.txt.gz
Precipitable_Water
1.18 1.19 1.19 1.19 1.19 1.26 1.27 1.27 1.29 1.34 1.38 1.36 1.23 1.12 1.10 1.11 1.10 1.10 1.16 1.22 1.25 1.25 1.20 1.22 1.24 1.20 1.19 1.17 1.15 1.14 1.14 1.14 1.09 1.06 1.05 1.07 1.10 1.11 1.12 1.13 1.17 1.21 1.28
1.30 1.27 1.26 1.27 1.26 1.30 1.35 1.36 1.35 1.34 1.38 1.35 1.26 1.23 1.17 1.18 1.17 1.15 1.17 1.23 1.21 1.20 1.18 1.16 1.17 1.12 1.07 1.06 1.05 1.03 1.02 0.98 0.97 0.94 0.92 0.95 0.98 0.98 0.98 1.02 1.05 1.11 1.10
1.45 1.35 1.31 1.35 1.38 1.40 1.41 1.42 1.39 1.40 1.39 1.37 1.32 1.27 1.23 1.24 1.20 1.16 1.17 1.18 1.18 1.15 1.12 1.10 1.08 1.05 1.00 0.99 0.94 0.88 0.84 0.82 0.81 0.82 0.82 0.82 0.82 0.84 0.87 0.87 0.87 0.88 0.90
1.47 1.52 1.40 1.37 1.48 1.50 1.47 1.39 1.35 1.34 1.37 1.35 1.34 1.32 1.27 1.23 1.20 1.19 1.18 1.12 1.14 1.14 1.10 1.06 1.02 0.96 0.91 0.87 0.82 0.80 0.79 0.77 0.76 0.75 0.73 0.73 0.72 0.72 0.73 0.74 0.76 0.79 0.81
1.54 1.51 1.57 1.56 1.57 1.59 1.53 1.42 1.42 1.37 1.29 1.31 1.33 1.36 1.28 1.17 1.19 1.16 1.14 1.17 1.15 1.08 1.06 1.10 1.04 0.96 0.95 0.90 0.87 0.86 0.83 0.82 0.79 0.76 0.74 0.72 0.71 0.71 0.71 0.71 0.70 0.67 0.66
1.65 1.68 1.69 1.69 1.60 1.60 1.59 1.49 1.50 1.49 1.37 1.35 1.31 1.32 1.29 1.22 1.20 1.21 1.19 1.21 1.17 1.12 1.14 1.09 1.09 1.06 0.99 0.95 0.93 0.90 0.87 0.83 0.79 0.78 0.74 0.72 0.71 0.72 0.72 0.69 0.67 0.65 0.64
1.65 1.61 1.61 1.62 1.60 1.55 1.58 1.52 1.43 1.36 1.39 1.37 1.29 1.26 1.27 1.29 1.25 1.24 1.21 1.17 1.17 1.09 1.13 1.08 1.06 1.05 1.01 0.97 0.95 0.94 0.94 0.89 0.84 0.81 0.77 0.74 0.73 0.70 0.70 0.70 0.67 0.67 0.65
1.57 1.58 1.60 1.61 1.59 1.54 1.53 1.53 1.47 1.37 1.35 1.38 1.24 1.20 1.05 1.14 1.22 1.26 1.22 1.25 1.17 1.06 1.03 1.04 1.00 0.97 0.95 0.95 0.93 0.90 0.89 0.87 0.84 0.81 0.80 0.78 0.79 0.78 0.72 0.70 0.72 0.72 0.76
1.50 1.56 1.60 1.58 1.57 1.56 1.51 1.49 1.44 1.37 1.28 1.30 1.36 1.13 0.97 0.92 1.10 1.21 1.22 1.20 1.13 1.08 1.03 1.01 0.94 0.91 0.92 0.94 0.91 0.89 0.89 0.89 0.90 0.88 0.87 0.85 0.82 0.80 0.80 0.80 0.76 0.75 0.75
1.46 1.58 1.58 1.58 1.53 1.50 1.46 1.43 1.42 1.33 1.31 1.24 1.25 1.21 1.25 1.10 0.98 0.94 1.06 1.10 1.13 1.07 1.05 1.02 0.96 0.94 0.89 0.90 0.89 0.89 0.89 0.89 0.88 0.90 0.93 0.97 0.92 0.85 0.80 0.77 0.77 0.75 0.72
1.43 1.47 1.48 1.50 1.47 1.46 1.43 1.36 1.33 1.33 1.23 1.21 1.20 1.10 1.09 1.06 1.08 0.95 0.83 0.93 1.02 1.03 1.02 0.99 0.98 0.98 0.98 0.96 0.94 0.93 0.92 0.91 0.91 0.92 0.95 0.90 0.87 0.85 0.82 0.78 0.75 0.74 0.74
1.32 1.39 1.45 1.46 1.45 1.43 1.36 1.36 1.30 1.24 1.25 1.20 1.12 1.08 1.06 0.99 0.97 0.93 0.88 0.89 0.88 0.91 0.95 0.94 0.92 0.93 0.93 0.93 0.95 0.95 0.93 0.91 0.89 0.87 0.84 0.83 0.83 0.81 0.76 0.71 0.71 0.69 0.67
1.25 1.31 1.35 1.36 1.41 1.39 1.32 1.27 1.25 1.21 1.21 1.13 1.10 1.09 1.06 1.03 1.02 0.98 0.89 0.82 0.78 0.82 0.81 0.86 0.85 0.86 0.85 0.87 0.88 0.85 0.83 0.83 0.82 0.79 0.75 0.72 0.70 0.71 0.69 0.65 0.65 0.63 0.62
1.27 1.35 1.32 1.37 1.34 1.30 1.31 1.20 1.16 1.16 1.15 1.09 1.02 1.01 1.00 0.98 0.99 0.92 0.83 0.76 0.68 0.70 0.74 0.75 0.83 0.80 0.80 0.82 0.81 0.81 0.79 0.77 0.76 0.74 0.67 0.63 0.63 0.65 0.64 0.63 0.62 0.59 0.57
1.24 1.24 1.22 1.20 1.21 1.20 1.13 1.19 1.12 1.16 1.03 0.94 0.89 0.87 0.86 0.87 0.88 0.88 0.86 0.83 0.73 0.62 0.65 0.74 0.71 0.80 0.79 0.78 0.76 0.73 0.73 0.74 0.72 0.69 0.67 0.62 0.61 0.62 0.59 0.56 0.54 0.53 0.53
1.16 1.13 1.18 1.19 1.13 1.08 1.10 1.09 1.05 0.99 0.83 0.81 0.83 0.84 0.83 0.81 0.81 0.80 0.78 0.76 0.74 0.67 0.57 0.67 0.68 0.70 0.69 0.67 0.66 0.62 0.63 0.64 0.64 0.63 0.62 0.60 0.62 0.62 0.58 0.52 0.50 0.50 0.50
1.08 1.03 1.04 1.06 1.02 1.02 1.05 1.03 0.95 0.84 0.81 0.78 0.77 0.72 0.69 0.69 0.66 0.66 0.65 0.62 0.59 0.58 0.49 0.53 0.56 0.57 0.53 0.53 0.54 0.55 0.57 0.56 0.54 0.55 0.57 0.55 0.56 0.54 0.53 0.51 0.48 0.48 0.46
1.01 1.02 1.02 1.00 0.99 0.98 0.94 0.87 0.80 0.75 0.71 0.68 0.68 0.64 0.60 0.58 0.53 0.52 0.49 0.46 0.46 0.46 0.41 0.39 0.46 0.46 0.48 0.51 0.52 0.50 0.49 0.50 0.49 0.49 0.48 0.49 0.54 0.51 0.49 0.53 0.48 0.47 0.43
1.01 1.01 0.99 0.90 0.87 0.84 0.80 0.77 0.74 0.69 0.66 0.63 0.61 0.56 0.52 0.49 0.44 0.41 0.38 0.33 0.33 0.36 0.38 0.37 0.37 0.44 0.45 0.46 0.46 0.46 0.45 0.46 0.49 0.49 0.46 0.46 0.45 0.47 0.49 0.47 0.46 0.41 0.40
0.93 0.92 0.88 0.83 0.82 0.80 0.76 0.72 0.66 0.63 0.64 0.59 0.52 0.48 0.42 0.39 0.35 0.31 0.29 0.29 0.31 0.32 0.35 0.35 0.34 0.36 0.40 0.43 0.44 0.40 0.38 0.44 0.43 0.46 0.44 0.45 0.44 0.43 0.45 0.43 0.40 0.38 0.36
0.94 0.90 0.84 0.83 0.81 0.80 0.76 0.70 0.68 0.63 0.50 0.44 0.40 0.37 0.37 0.36 0.34 0.33 0.32 0.32 0.30 0.28 0.29 0.31 0.33 0.36 0.36 0.37 0.38 0.41 0.39 0.40 0.41 0.43 0.42 0.43 0.42 0.42 0.44 0.41 0.38 0.35 0.32
0.92 0.86 0.85 0.83 0.80 0.78 0.77 0.68 0.55 0.48 0.45 0.40 0.36 0.36 0.38 0.39 0.39 0.39 0.37 0.35 0.35 0.32 0.30 0.30 0.32 0.32 0.34 0.38 0.42 0.41 0.39 0.36 0.33 0.44 0.41 0.40 0.43 0.41 0.41 0.38 0.35 0.33 0.32
0.89 0.87 0.85 0.82 0.78 0.75 0.67 0.57 0.53 0.48 0.42 0.36 0.37 0.37 0.37 0.39 0.38 0.37 0.36 0.34 0.33 0.34 0.34 0.32 0.30 0.33 0.34 0.41 0.43 0.40 0.40 0.38 0.37 0.43 0.42 0.37 0.41 0.37 0.40 0.38 0.36 0.34 0.31
0.87 0.82 0.80 0.77 0.76 0.68 0.63 0.58 0.50 0.47 0.43 0.40 0.37 0.38 0.37 0.33 0.34 0.35 0.33 0.31 0.30 0.29 0.29 0.30 0.30 0.33 0.36 0.42 0.46 0.43 0.42 0.43 0.44 0.44 0.44 0.34 0.40 0.38 0.39 0.38 0.36 0.33 0.29
0.81 0.78 0.78 0.77 0.73 0.68 0.63 0.54 0.51 0.48 0.42 0.38 0.37 0.36 0.34 0.31 0.30 0.30 0.28 0.26 0.26 0.27 0.31 0.32 0.34 0.36 0.40 0.43 0.44 0.42 0.40 0.40 0.36 0.38 0.43 0.38 0.37 0.35 0.35 0.34 0.34 0.30 0.26
0.83 0.83 0.76 0.78 0.77 0.69 0.60 0.56 0.54 0.47 0.42 0.38 0.37 0.37 0.36 0.32 0.30 0.28 0.24 0.23 0.23 0.25 0.27 0.30 0.33 0.35 0.38 0.41 0.42 0.41 0.42 0.38 0.37 0.35 0.40 0.34 0.33 0.32 0.28 0.30 0.29 0.27 0.24

GFSMA_prec_pwat_195.txt.gz
Precipitable_Water
1.27 1.21 1.16 1.17 1.15 1.20 1.16 1.19 1.24 1.26 1.31 1.36 1.36 1.33 1.23 1.22 1.22 1.21 1.18 1.14 1.11 1.18 1.27 1.30 1.29 1.30 1.25 1.20 1.20 1.17 1.15 1.15 1.15 1.14 1.08 1.04 1.06 1.10 1.11 1.11 1.14 1.17 1.21
1.39 1.28 1.22 1.19 1.17 1.19 1.23 1.24 1.24 1.26 1.29 1.34 1.34 1.42 1.39 1.32 1.27 1.27 1.22 1.23 1.25 1.24 1.23 1.21 1.23 1.22 1.21 1.15 1.11 1.08 1.05 1.00 0.97 0.96 0.95 0.92 0.93 0.95 1.01 1.02 1.03 1.05 1.11
1.48 1.38 1.30 1.25 1.33 1.30 1.26 1.34 1.36 1.38 1.34 1.33 1.33 1.44 1.48 1.43 1.37 1.35 1.40 1.39 1.37 1.35 1.26 1.19 1.16 1.12 1.16 1.07 1.04 1.02 0.97 0.89 0.85 0.82 0.80 0.81 0.82 0.85 0.88 0.90 0.92 0.92 0.93
1.47 1.43 1.35 1.35 1.40 1.42 1.44 1.39 1.37 1.35 1.29 1.28 1.32 1.41 1.46 1.48 1.44 1.38 1.39 1.34 1.35 1.35 1.33 1.29 1.17 1.14 1.08 0.98 0.89 0.86 0.80 0.78 0.76 0.74 0.73 0.72 0.72 0.73 0.74 0.75 0.77 0.78 0.80
1.45 1.42 1.41 1.43 1.48 1.46 1.52 1.54 1.42 1.45 1.29 1.27 1.35 1.41 1.45 1.47 1.49 1.43 1.34 1.31 1.28 1.28 1.26 1.28 1.28 1.20 1.07 1.10 0.99 0.91 0.85 0.80 0.76 0.73 0.71 0.70 0.70 0.70 0.69 0.69 0.68 0.68 0.69
1.36 1.35 1.38 1.46 1.52 1.53 1.55 1.56 1.50 1.51 1.45 1.42 1.39 1.37 1.43 1.48 1.47 1.42 1.34 1.31 1.31 1.27 1.26 1.18 1.23 1.22 1.10 1.12 1.10 0.98 0.90 0.86 0.81 0.74 0.71 0.70 0.69 0.71 0.70 0.71 0.70 0.70 0.71
1.43 1.39 1.41 1.45 1.54 1.54 1.58 1.65 1.59 1.52 1.45 1.50 1.38 1.33 1.36 1.44 1.42 1.40 1.42 1.33 1.28 1.28 1.24 1.19 1.25 1.26 1.19 1.18 1.09 1.05 0.99 0.90 0.85 0.81 0.78 0.76 0.76 0.76 0.76 0.75 0.77 0.76 0.76
1.48 1.47 1.49 1.51 1.54 1.52 1.52 1.52 1.51 1.44 1.45 1.48 1.29 1.26 1.11 1.16 1.26 1.35 1.35 1.33 1.28 1.25 1.18 1.24 1.22 1.21 1.16 1.11 1.07 1.03 1.02 1.01 0.99 0.97 0.94 0.90 0.87 0.83 0.79 0.81 0.79 0.77 0.77
1.50 1.48 1.56 1.53 1.51 1.51 1.51 1.50 1.48 1.45 1.36 1.40 1.36 1.19 1.09 1.00 1.05 1.25 1.25 1.20 1.18 1.18 1.19 1.19 1.14 1.11 1.07 1.02 0.98 0.94 0.91 0.95 0.96 0.96 0.93 0.91 0.90 0.93 0.92 0.86 0.79 0.76 0.75
1.47 1.47 1.50 1.48 1.48 1.57 1.54 1.50 1.49 1.43 1.39 1.30 1.30 1.24 1.26 1.21 0.95 0.95 1.13 1.11 1.12 1.08 1.07 1.08 1.07 1.06 1.04 0.98 0.96 0.92 0.90 0.92 0.94 0.97 0.99 0.99 0.99 0.99 0.98 0.98 0.98 0.93 0.85
1.49 1.43 1.41 1.49 1.50 1.53 1.49 1.46 1.46 1.40 1.40 1.40 1.23 1.15 1.26 1.17 1.15 0.99 0.85 0.97 1.05 1.03 1.02 1.02 1.00 0.97 0.97 0.96 0.95 0.96 0.96 0.95 0.93 0.95 0.94 0.93 0.91 0.92 0.90 0.88 0.84 0.82 0.81
1.24 1.30 1.35 1.35 1.41 1.42 1.42 1.40 1.41 1.41 1.46 1.27 1.31 1.22 1.13 1.02 1.03 1.02 0.90 0.90 0.90 0.94 0.97 0.97 0.96 0.96 0.96 0.95 0.95 0.95 0.94 0.89 0.85 0.85 0.85 0.84 0.83 0.82 0.81 0.80 0.74 0.69 0.68
1.18 1.30 1.34 1.34 1.30 1.31 1.46 1.39 1.35 1.50 1.30 1.34 1.24 1.16 1.12 1.04 1.08 1.02 0.95 0.88 0.84 0.86 0.87 0.91 0.91 0.91 0.91 0.93 0.93 0.91 0.86 0.81 0.79 0.79 0.77 0.76 0.74 0.71 0.68 0.65 0.65 0.67 0.65
1.09 1.24 1.24 1.28 1.29 1.32 1.34 1.38 1.26 1.32 1.29 1.24 1.14 1.09 1.09 1.11 1.08 1.00 0.93 0.85 0.75 0.75 0.77 0.77 0.84 0.84 0.86 0.85 0.84 0.81 0.77 0.74 0.71 0.70 0.66 0.64 0.63 0.61 0.59 0.58 0.59 0.61 0.59
1.15 1.24 1.24 1.23 1.19 1.22 1.20 1.17 1.17 1.16 1.09 1.09 1.13 1.02 0.99 0.91 0.95 0.96 0.94 0.87 0.75 0.61 0.62 0.70 0.69 0.79 0.79 0.77 0.76 0.72 0.67 0.65 0.62 0.60 0.58 0.58 0.56 0.55 0.55 0.55 0.53 0.52 0.52
1.07 1.05 1.14 1.09 1.07 1.12 1.13 1.15 1.07 1.05 1.06 1.04 1.06 0.97 0.89 0.92 0.92 0.90 0.88 0.83 0.80 0.69 0.56 0.63 0.65 0.69 0.68 0.65 0.64 0.61 0.57 0.56 0.55 0.53 0.51 0.51 0.52 0.51 0.49 0.51 0.52 0.48 0.46
1.06 1.06 1.05 1.02 1.08 1.03 1.03 1.00 0.98 0.99 0.97 1.00 0.99 0.92 0.85 0.85 0.82 0.82 0.81 0.77 0.71 0.67 0.55 0.56 0.58 0.57 0.55 0.53 0.52 0.52 0.52 0.51 0.50 0.47 0.45 0.46 0.45 0.45 0.44 0.41 0.42 0.48 0.49
1.01 1.00 1.01 1.02 1.01 1.00 1.01 0.97 0.95 0.96 0.92 0.87 0.83 0.81 0.81 0.79 0.73 0.70 0.69 0.65 0.61 0.58 0.51 0.45 0.48 0.48 0.45 0.47 0.46 0.45 0.46 0.48 0.47 0.45 0.43 0.44 0.43 0.42 0.39 0.36 0.39 0.40 0.42
0.96 0.99 1.01 0.99 0.99 1.00 0.99 0.98 0.96 0.92 0.89 0.86 0.79 0.77 0.74 0.72 0.63 0.63 0.60 0.56 0.53 0.52 0.49 0.44 0.40 0.43 0.41 0.44 0.43 0.44 0.44 0.45 0.46 0.45 0.44 0.43 0.41 0.40 0.39 0.38 0.37 0.36 0.39
0.88 0.91 0.95 0.99 0.98 0.97 0.92 0.90 0.87 0.85 0.80 0.78 0.75 0.71 0.68 0.63 0.59 0.51 0.49 0.44 0.42 0.39 0.39 0.37 0.36 0.36 0.39 0.41 0.40 0.37 0.37 0.41 0.40 0.44 0.44 0.43 0.42 0.40 0.38 0.37 0.35 0.34 0.33
0.93 0.95 0.95 0.96 0.95 0.91 0.88 0.82 0.82 0.78 0.76 0.68 0.66 0.64 0.62 0.57 0.49 0.43 0.36 0.33 0.36 0.36 0.37 0.36 0.34 0.35 0.34 0.34 0.33 0.36 0.35 0.38 0.39 0.41 0.41 0.41 0.40 0.40 0.39 0.39 0.36 0.33 0.32
0.90 0.92 0.93 0.96 0.94 0.89 0.85 0.82 0.81 0.79 0.75 0.68 0.62 0.63 0.52 0.42 0.37 0.34 0.32 0.34 0.36 0.34 0.32 0.31 0.32 0.31 0.33 0.35 0.37 0.36 0.36 0.34 0.31 0.43 0.39 0.38 0.41 0.39 0.41 0.40 0.38 0.33 0.29
0.89 0.93 0.91 0.91 0.89 0.85 0.83 0.83 0.82 0.77 0.68 0.63 0.58 0.45 0.40 0.37 0.37 0.35 0.38 0.38 0.38 0.36 0.36 0.34 0.32 0.34 0.35 0.38 0.39 0.37 0.37 0.37 0.36 0.41 0.40 0.35 0.40 0.39 0.40 0.39 0.38 0.35 0.33
0.85 0.82 0.81 0.85 0.87 0.83 0.80 0.78 0.75 0.71 0.65 0.58 0.47 0.44 0.41 0.38 0.37 0.34 0.35 0.32 0.31 0.32 0.33 0.33 0.35 0.37 0.39 0.41 0.43 0.42 0.42 0.41 0.42 0.42 0.42 0.34 0.40 0.37 0.40 0.40 0.40 0.39 0.35
0.84 0.82 0.87 0.84 0.82 0.79 0.79 0.76 0.75 0.65 0.55 0.49 0.50 0.45 0.40 0.39 0.38 0.35 0.31 0.28 0.29 0.29 0.32 0.32 0.33 0.35 0.38 0.41 0.44 0.44 0.40 0.38 0.35 0.38 0.43 0.38 0.37 0.37 0.37 0.37 0.40 0.38 0.33
0.76 0.81 0.84 0.83 0.79 0.77 0.78 0.76 0.69 0.62 0.52 0.51 0.47 0.41 0.41 0.37 0.37 0.33 0.30 0.26 0.24 0.25 0.28 0.28 0.29 0.32 0.37 0.41 0.45 0.45 0.42 0.37 0.37 0.36 0.41 0.37 0.36 0.36 0.30 0.35 0.35 0.32 0.28

GFSMA_prec_pwat_198.txt.gz
Precipitable_Water
1.24 1.28 1.17 1.16 1.18 1.21 1.19 1.18 1.17 1.20 1.21 1.23 1.26 1.30 1.32 1.33 1.36 1.32 1.31 1.31 1.34 1.33 1.29 1.36 1.36 1.34 1.34 1.28 1.23 1.20 1.17 1.15 1.14 1.12 1.11 1.13 1.09 1.05 1.05 1.06 1.06 1.11 1.14
1.30 1.32 1.26 1.31 1.14 1.22 1.23 1.28 1.24 1.19 1.19 1.23 1.25 1.31 1.36 1.44 1.46 1.43 1.36 1.35 1.36 1.42 1.48 1.44 1.43 1.42 1.31 1.20 1.19 1.16 1.11 1.07 1.03 1.01 0.98 0.94 0.94 0.92 0.92 0.93 0.96 0.99 1.03
1.35 1.32 1.34 1.32 1.29 1.23 1.29 1.31 1.33 1.37 1.31 1.28 1.29 1.38 1.39 1.44 1.50 1.49 1.48 1.43 1.42 1.42 1.42 1.39 1.38 1.37 1.32 1.26 1.19 1.11 1.03 0.99 0.97 0.89 0.84 0.81 0.80 0.82 0.84 0.85 0.85 0.84 0.87
1.40 1.38 1.37 1.42 1.39 1.35 1.35 1.34 1.34 1.37 1.36 1.33 1.32 1.38 1.40 1.50 1.50 1.50 1.51 1.51 1.51 1.42 1.40 1.34 1.35 1.36 1.30 1.22 1.23 1.06 0.94 0.84 0.78 0.75 0.73 0.72 0.72 0.71 0.71 0.71 0.71 0.72 0.73
1.42 1.42 1.42 1.42 1.42 1.40 1.40 1.41 1.43 1.46 1.40 1.37 1.34 1.38 1.41 1.43 1.45 1.47 1.47 1.50 1.55 1.50 1.41 1.36 1.31 1.27 1.24 1.21 1.19 1.18 1.06 0.93 0.87 0.79 0.75 0.73 0.71 0.69 0.69 0.68 0.68 0.70 0.70
1.41 1.38 1.38 1.41 1.43 1.38 1.40 1.43 1.47 1.49 1.49 1.47 1.46 1.42 1.47 1.50 1.51 1.47 1.48 1.53 1.51 1.49 1.43 1.42 1.31 1.29 1.22 1.19 1.19 1.25 1.17 1.05 0.91 0.86 0.83 0.78 0.74 0.72 0.70 0.69 0.70 0.70 0.72
1.44 1.43 1.38 1.37 1.40 1.34 1.37 1.43 1.50 1.41 1.47 1.52 1.43 1.38 1.43 1.49 1.47 1.47 1.47 1.48 1.41 1.43 1.41 1.37 1.33 1.26 1.23 1.19 1.19 1.23 1.19 1.11 1.00 0.91 0.90 0.93 0.90 0.87 0.80 0.79 0.77 0.75 0.76
1.50 1.55 1.45 1.36 1.41 1.43 1.47 1.47 1.49 1.46 1.48 1.54 1.37 1.33 1.18 1.28 1.36 1.43 1.33 1.34 1.35 1.34 1.31 1.28 1.27 1.21 1.17 1.20 1.21 1.18 1.08 1.03 1.03 1.01 1.02 1.00 0.99 1.00 1.02 0.98 0.94 0.90 0.84
1.56 1.53 1.45 1.44 1.49 1.57 1.52 1.52 1.53 1.52 1.45 1.51 1.48 1.33 1.13 1.07 1.21 1.27 1.23 1.23 1.28 1.26 1.23 1.24 1.20 1.18 1.13 1.11 1.08 1.05 0.99 0.97 0.98 0.98 0.98 1.00 1.02 1.02 1.01 1.01 0.99 0.98 0.98
1.52 1.56 1.57 1.54 1.54 1.51 1.46 1.44 1.57 1.60 1.56 1.40 1.46 1.42 1.37 1.28 1.11 1.04 1.13 1.21 1.19 1.12 1.15 1.15 1.15 1.13 1.09 1.05 1.02 0.97 0.92 0.90 0.96 0.98 0.99 0.99 0.98 0.97 0.96 0.94 0.94 0.92 0.92
1.45 1.47 1.55 1.51 1.36 1.35 1.38 1.38 1.42 1.43 1.42 1.33 1.30 1.28 1.32 1.27 1.22 1.08 0.97 1.04 1.11 1.12 1.11 1.12 1.12 1.09 1.04 0.99 0.96 0.94 0.92 0.94 0.92 0.89 0.88 0.89 0.91 0.89 0.87 0.86 0.83 0.78 0.78
1.52 1.53 1.47 1.38 1.34 1.31 1.32 1.29 1.37 1.36 1.31 1.31 1.36 1.29 1.27 1.14 1.16 1.06 1.01 1.01 0.99 0.97 1.04 1.08 1.05 1.02 0.99 0.96 0.97 0.96 0.93 0.89 0.87 0.87 0.86 0.85 0.85 0.82 0.78 0.77 0.72 0.71 0.74
1.29 1.29 1.21 1.19 1.24 1.30 1.29 1.31 1.26 1.25 1.35 1.25 1.26 1.29 1.24 1.26 1.25 1.13 0.98 0.94 0.91 0.94 0.94 0.99 1.01 0.97 0.97 0.97 0.96 0.94 0.91 0.87 0.84 0.80 0.76 0.73 0.70 0.68 0.64 0.60 0.56 0.56 0.58
1.17 1.21 1.11 1.19 1.14 1.11 1.23 1.27 1.19 1.19 1.29 1.20 1.22 1.26 1.15 1.13 1.10 1.02 0.96 0.85 0.76 0.82 0.85 0.83 0.92 0.95 0.93 0.90 0.91 0.88 0.82 0.77 0.71 0.66 0.62 0.59 0.58 0.55 0.50 0.47 0.46 0.45 0.46
1.05 1.04 1.08 1.05 1.07 1.12 1.14 1.15 1.12 1.10 1.15 1.16 1.15 1.15 1.06 1.12 1.07 1.06 1.04 0.92 0.82 0.70 0.71 0.81 0.81 0.89 0.87 0.86 0.83 0.76 0.70 0.63 0.59 0.55 0.53 0.51 0.52 0.49 0.46 0.47 0.46 0.46 0.44
0.93 0.97 0.99 1.02 1.03 1.06 1.14 1.05 1.06 1.07 1.08 1.09 1.07 1.01 1.03 1.05 1.05 1.06 0.95 0.96 0.92 0.82 0.70 0.77 0.78 0.78 0.75 0.73 0.73 0.69 0.60 0.59 0.54 0.53 0.49 0.48 0.47 0.45 0.41 0.39 0.38 0.37 0.37
0.88 0.90 0.92 0.96 0.99 1.02 0.99 1.04 1.02 1.00 1.00 0.98 0.98 0.96 0.99 0.97 1.00 0.95 1.00 0.95 0.90 0.84 0.70 0.73 0.73 0.71 0.65 0.64 0.65 0.60 0.59 0.54 0.51 0.49 0.48 0.46 0.45 0.42 0.41 0.39 0.37 0.35 0.36
0.81 0.83 0.88 0.91 0.95 0.95 1.02 0.99 0.97 0.98 0.97 0.95 0.97 0.94 0.94 0.96 0.92 0.91 0.91 0.89 0.84 0.82 0.73 0.62 0.63 0.59 0.58 0.61 0.58 0.54 0.52 0.50 0.48 0.47 0.46 0.45 0.42 0.42 0.38 0.36 0.36 0.34 0.33
0.82 0.82 0.84 0.86 0.91 0.96 0.98 1.00 0.97 0.97 0.98 0.97 0.97 0.91 0.87 0.86 0.86 0.85 0.83 0.80 0.76 0.73 0.67 0.59 0.51 0.54 0.52 0.52 0.48 0.48 0.46 0.46 0.47 0.45 0.46 0.44 0.43 0.40 0.38 0.36 0.34 0.33 0.32
0.79 0.82 0.87 0.90 0.92 0.93 0.92 0.95 0.96 0.95 0.94 0.94 0.91 0.89 0.87 0.84 0.82 0.77 0.72 0.71 0.68 0.61 0.57 0.51 0.45 0.42 0.42 0.43 0.42 0.39 0.39 0.43 0.41 0.44 0.44 0.43 0.42 0.40 0.37 0.35 0.35 0.33 0.33
0.82 0.85 0.86 0.87 0.91 0.93 0.93 0.92 0.94 0.91 0.88 0.86 0.84 0.84 0.84 0.83 0.77 0.73 0.68 0.58 0.58 0.48 0.42 0.35 0.34 0.35 0.36 0.37 0.36 0.39 0.37 0.38 0.39 0.41 0.40 0.42 0.41 0.38 0.38 0.37 0.35 0.34 0.33
0.87 0.87 0.88 0.88 0.88 0.91 0.94 0.96 0.93 0.87 0.83 0.78 0.75 0.75 0.77 0.74 0.67 0.64 0.60 0.56 0.45 0.36 0.31 0.32 0.35 0.34 0.33 0.36 0.38 0.36 0.35 0.32 0.30 0.42 0.39 0.38 0.41 0.38 0.38 0.37 0.38 0.36 0.33
0.83 0.83 0.84 0.84 0.89 0.91 0.91 0.90 0.86 0.83 0.80 0.77 0.74 0.70 0.70 0.69 0.65 0.58 0.49 0.37 0.35 0.38 0.39 0.39 0.34 0.34 0.35 0.36 0.37 0.34 0.35 0.35 0.33 0.39 0.39 0.35 0.41 0.38 0.41 0.40 0.39 0.37 0.35
0.64 0.69 0.72 0.78 0.84 0.87 0.89 0.88 0.84 0.80 0.78 0.78 0.76 0.72 0.67 0.62 0.56 0.47 0.35 0.32 0.37 0.38 0.39 0.37 0.37 0.37 0.38 0.39 0.39 0.37 0.37 0.37 0.39 0.41 0.41 0.34 0.40 0.39 0.41 0.40 0.40 0.39 0.37
0.48 0.52 0.60 0.67 0.74 0.81 0.84 0.84 0.85 0.79 0.76 0.75 0.71 0.68 0.61 0.57 0.50 0.40 0.39 0.39 0.34 0.35 0.37 0.37 0.37 0.39 0.40 0.38 0.38 0.37 0.33 0.34 0.32 0.36 0.42 0.39 0.38 0.37 0.39 0.38 0.40 0.40 0.38
0.41 0.46 0.51 0.56 0.66 0.69 0.76 0.81 0.81 0.78 0.73 0.69 0.67 0.64 0.58 0.51 0.45 0.43 0.39 0.33 0.31 0.32 0.33 0.31 0.31 0.34 0.37 0.37 0.37 0.37 0.37 0.33 0.34 0.35 0.41 0.37 0.36 0.36 0.32 0.37 0.36 0.35 0.30

GFSMA_prec_pwat_201.txt.gz
Precipitable_Water
1.25 1.27 1.20 1.33 1.27 1.28 1.22 1.17 1.22 1.26 1.27 1.29 1.30 1.30 1.33 1.36 1.42 1.47 1.47 1.39 1.32 1.29 1.37 1.42 1.58 1.57 1.54 1.50 1.37 1.25 1.19 1.18 1.18 1.17 1.14 1.13 1.13 1.15 1.12 1.09 1.09 1.10 1.14
1.30 1.32 1.28 1.29 1.30 1.32 1.28 1.25 1.19 1.22 1.26 1.26 1.27 1.31 1.33 1.43 1.45 1.48 1.53 1.52 1.46 1.36 1.35 1.40 1.55 1.58 1.48 1.41 1.38 1.30 1.25 1.15 1.07 1.07 1.06 1.03 1.00 0.96 0.94 0.92 0.91 0.94 0.96
1.39 1.37 1.35 1.37 1.35 1.34 1.35 1.30 1.30 1.27 1.24 1.27 1.27 1.33 1.38 1.43 1.50 1.51 1.58 1.59 1.54 1.52 1.48 1.42 1.37 1.35 1.37 1.32 1.32 1.34 1.29 1.20 1.13 0.99 0.93 0.89 0.87 0.83 0.81 0.81 0.82 0.81 0.80
1.43 1.40 1.36 1.37 1.42 1.40 1.39 1.38 1.32 1.25 1.24 1.29 1.38 1.37 1.43 1.45 1.50 1.55 1.59 1.59 1.59 1.59 1.56 1.51 1.46 1.38 1.35 1.32 1.26 1.14 1.11 1.04 1.03 0.99 0.87 0.80 0.77 0.76 0.72 0.68 0.68 0.68 0.68
1.48 1.44 1.41 1.42 1.47 1.46 1.42 1.41 1.39 1.38 1.33 1.35 1.35 1.39 1.48 1.46 1.49 1.51 1.51 1.54 1.56 1.56 1.56 1.57 1.53 1.49 1.43 1.38 1.27 1.22 1.09 1.00 0.98 0.97 0.93 0.85 0.82 0.78 0.73 0.70 0.67 0.68 0.70
1.46 1.44 1.43 1.43 1.47 1.42 1.38 1.37 1.36 1.44 1.42 1.46 1.44 1.43 1.48 1.50 1.54 1.53 1.55 1.61 1.60 1.60 1.59 1.52 1.45 1.41 1.40 1.33 1.28 1.23 1.12 1.09 1.02 1.02 1.00 0.90 0.85 0.82 0.80 0.82 0.79 0.75 0.72
1.45 1.42 1.42 1.43 1.44 1.37 1.36 1.40 1.40 1.38 1.39 1.49 1.42 1.44 1.49 1.55 1.52 1.52 1.59 1.61 1.55 1.53 1.54 1.44 1.42 1.35 1.31 1.30 1.27 1.19 1.14 1.12 1.08 0.99 0.96 0.92 0.88 0.91 0.95 0.95 0.96 0.95 0.91
1.46 1.43 1.42 1.47 1.51 1.46 1.46 1.44 1.43 1.41 1.43 1.49 1.39 1.40 1.20 1.30 1.42 1.44 1.47 1.45 1.43 1.50 1.47 1.42 1.39 1.34 1.33 1.28 1.22 1.19 1.14 1.06 1.01 1.01 1.01 0.99 1.00 1.03 1.03 1.03 1.03 1.03 1.01
1.50 1.48 1.55 1.54 1.50 1.51 1.43 1.49 1.53 1.45 1.34 1.44 1.51 1.37 1.15 1.09 1.24 1.36 1.36 1.36 1.37 1.34 1.39 1.39 1.36 1.35 1.29 1.23 1.23 1.13 1.05 0.99 0.97 0.98 0.98 0.98 1.01 1.01 1.01 0.99 0.96 0.97 0.95
1.47 1.57 1.59 1.54 1.54 1.54 1.48 1.49 1.50 1.43 1.40 1.27 1.42 1.45 1.41 1.32 1.10 1.05 1.21 1.25 1.29 1.22 1.27 1.30 1.27 1.27 1.23 1.21 1.17 1.07 0.98 0.93 0.97 1.00 0.99 0.97 0.95 0.93 0.92 0.92 0.89 0.89 0.89
1.50 1.49 1.48 1.50 1.52 1.51 1.44 1.42 1.39 1.41 1.37 1.27 1.31 1.29 1.29 1.21 1.17 1.09 0.95 1.06 1.17 1.17 1.19 1.19 1.20 1.19 1.19 1.18 1.12 1.03 0.96 0.97 0.98 0.93 0.90 0.90 0.94 0.91 0.88 0.84 0.81 0.79 0.79
1.36 1.40 1.41 1.49 1.53 1.48 1.37 1.29 1.30 1.30 1.28 1.24 1.28 1.25 1.19 1.11 1.10 1.09 0.99 1.07 1.02 1.04 1.08 1.12 1.11 1.12 1.13 1.09 1.06 1.01 0.98 0.95 0.93 0.91 0.89 0.91 0.90 0.85 0.80 0.71 0.65 0.61 0.61
1.21 1.29 1.33 1.32 1.29 1.22 1.20 1.27 1.21 1.21 1.18 1.19 1.18 1.16 1.14 1.13 1.21 1.09 1.08 0.98 0.95 1.00 0.99 1.05 1.04 1.05 1.05 1.03 0.99 0.98 0.96 0.93 0.90 0.87 0.84 0.80 0.73 0.68 0.63 0.56 0.51 0.49 0.48
1.15 1.13 1.14 1.12 1.14 1.11 1.11 1.04 1.11 1.14 1.14 1.11 1.09 1.10 1.17 1.16 1.15 1.13 1.05 0.98 0.87 0.88 0.90 0.89 0.97 0.99 1.02 0.99 0.99 0.97 0.94 0.90 0.84 0.78 0.70 0.63 0.59 0.57 0.53 0.49 0.47 0.47 0.46
0.96 0.98 0.97 0.99 1.02 1.04 1.06 1.06 1.04 1.05 1.06 1.08 1.07 1.08 1.09 1.14 1.13 1.13 1.05 0.99 0.86 0.73 0.76 0.86 0.86 0.97 0.99 0.97 0.94 0.93 0.89 0.84 0.74 0.67 0.59 0.54 0.53 0.50 0.47 0.45 0.43 0.40 0.39
0.85 0.85 0.85 0.88 0.89 0.92 0.98 1.00 0.99 1.02 0.99 1.04 1.06 1.05 1.07 1.06 1.05 1.01 1.00 1.03 0.96 0.90 0.76 0.86 0.87 0.91 0.95 0.93 0.91 0.87 0.80 0.73 0.65 0.59 0.53 0.51 0.45 0.45 0.43 0.41 0.40 0.39 0.38
0.81 0.80 0.81 0.84 0.84 0.86 0.90 0.91 0.93 0.95 0.95 0.98 0.98 1.01 1.01 1.00 0.98 0.99 1.04 1.03 0.95 0.91 0.79 0.81 0.87 0.90 0.88 0.84 0.80 0.73 0.71 0.65 0.59 0.55 0.52 0.47 0.45 0.43 0.42 0.40 0.37 0.36 0.34
0.80 0.79 0.81 0.80 0.81 0.83 0.85 0.84 0.86 0.92 0.96 0.92 0.96 0.94 0.95 0.97 0.97 0.99 0.96 0.90 0.93 0.93 0.86 0.80 0.81 0.84 0.81 0.81 0.69 0.61 0.60 0.56 0.52 0.52 0.49 0.47 0.43 0.41 0.39 0.38 0.36 0.34 0.33
0.82 0.83 0.81 0.79 0.79 0.79 0.84 0.85 0.87 0.89 0.90 0.93 0.94 0.94 0.95 0.97 0.95 0.97 0.92 0.91 0.91 0.92 0.89 0.82 0.76 0.80 0.74 0.66 0.54 0.55 0.51 0.51 0.51 0.49 0.47 0.45 0.42 0.39 0.38 0.35 0.34 0.33 0.32
0.84 0.82 0.81 0.82 0.83 0.83 0.82 0.84 0.87 0.88 0.90 0.93 0.95 0.95 0.96 0.93 0.90 0.90 0.89 0.87 0.89 0.86 0.85 0.78 0.73 0.65 0.56 0.51 0.49 0.45 0.43 0.46 0.44 0.46 0.45 0.43 0.40 0.39 0.36 0.34 0.34 0.33 0.33
0.83 0.83 0.82 0.83 0.82 0.83 0.86 0.86 0.87 0.89 0.88 0.89 0.93 0.92 0.93 0.95 0.93 0.91 0.87 0.84 0.83 0.78 0.72 0.69 0.59 0.49 0.44 0.41 0.40 0.43 0.44 0.42 0.42 0.43 0.40 0.39 0.39 0.38 0.37 0.36 0.35 0.35 0.34
0.75 0.77 0.77 0.81 0.80 0.85 0.86 0.88 0.88 0.84 0.86 0.89 0.85 0.88 0.88 0.90 0.89 0.87 0.86 0.84 0.81 0.72 0.64 0.56 0.48 0.42 0.40 0.39 0.44 0.41 0.38 0.35 0.29 0.40 0.37 0.36 0.40 0.37 0.37 0.37 0.36 0.36 0.36
0.61 0.59 0.60 0.62 0.63 0.70 0.73 0.76 0.77 0.77 0.80 0.81 0.82 0.81 0.82 0.85 0.85 0.82 0.81 0.78 0.75 0.68 0.59 0.50 0.41 0.37 0.35 0.40 0.40 0.39 0.37 0.34 0.32 0.37 0.37 0.33 0.40 0.37 0.39 0.40 0.38 0.36 0.36
0.41 0.40 0.44 0.48 0.54 0.59 0.65 0.68 0.73 0.75 0.75 0.77 0.75 0.78 0.78 0.80 0.81 0.78 0.74 0.68 0.65 0.56 0.48 0.43 0.42 0.40 0.43 0.43 0.43 0.40 0.37 0.36 0.36 0.38 0.40 0.32 0.39 0.38 0.41 0.40 0.39 0.38 0.36
0.35 0.35 0.35 0.39 0.42 0.44 0.54 0.62 0.66 0.69 0.71 0.72 0.71 0.77 0.80 0.78 0.78 0.75 0.70 0.63 0.57 0.46 0.43 0.42 0.44 0.47 0.45 0.44 0.42 0.38 0.31 0.30 0.29 0.32 0.39 0.38 0.38 0.37 0.38 0.38 0.40 0.38 0.37
0.33 0.35 0.34 0.36 0.39 0.39 0.43 0.49 0.57 0.66 0.64 0.63 0.65 0.75 0.75 0.74 0.75 0.71 0.63 0.55 0.46 0.38 0.39 0.42 0.42 0.41 0.43 0.41 0.38 0.37 0.34 0.29 0.30 0.30 0.39 0.38 0.36 0.35 0.31 0.37 0.38 0.38 0.33